Weather in Rusanovo

Russia / Komi Republic     62°55′49″N   56°10′24″E
temp.,
°C
wind,
m/s
gust,
m/s
humid.,
%
clouds,
%
prec.,
mm/h
press.,
hPa
HPBL,
m
11 april, sun
sun1100:00−1sse389724 0.0 1027187
03:00−2sse379724 0.0 1026161
06:00−1s369433 0.0 1024161
09:00+5ssw498234 0.0 1022702
12:00+6sw511695 0.0 10211055
15:00+6sw61373100 0.0 10211478
18:00+3wsw411785 0.3 1023457
21:00+2wsw514805 0.3 1025676
12 april, mon
mon1200:00+1wsw514805 0.0 1025680
03:00+1wsw5137941 0.0 1027870
06:00+1wsw513765 0.0 1029936
09:00+4w512705 0.0 10301120
12:00+6w5116874 0.1 10321550
15:00+6w5116991 0.3 10331533
18:00+4wsw310769 0.1 1034337
21:00+2wsw4128452 0.1 1034365
13 april, tue
tue1300:00+1sw31180100 0.0 1034319
03:00+2sw41478100 0.0 1033514
06:00+4wsw41573100 0.0 1031589
09:00+7wsw41173100 0.0 1030597
12:00+10sw596850 0.0 1029798
15:00+10sw51174100 0.0 1027899
18:00+7ssw41379100 0.2 1024717
21:00+7sw51487100 0.4 1022841
14 april, wed
wed1400:00+8sw51391100 0.4 1021793
03:00+8wsw41193100 0.6 1021671
06:00+7sw2697100 0.1 1022256
09:00+9sw3988100 0.2 1021479
12:00+9ssw4119193 0.0 1019504
15:00+12sw51281100 0.0 1017803
18:00+12sw61373100 0.0 1015961
21:00+12sw61474100 0.3 1012962
15 april, thu
thu1500:00+6nw51184100 0.8 1014786
03:00+5w4982100 1.9 1016881
06:00+4nw4762100 0.1 10181130
09:00+4nw4554100 0.1 10191356
12:00+6nnw3547100 0.0 10201699
15:00+5nnw3446100 0.0 10201485
18:00+4n2351100 0.0 1020133
21:00+2ene2562100 0.0 1020221